SVA552 OERK-OMDB

Flight info

Callsign SVA552
Flight time 1h 30m
Altitude 35000
Route RAPM2D RAPMA DCT DEGNO DCT OBSEP DCT MIGMA DCT RIBOT M550 GOLGU DCT UKRAG G783 ASPED Q308 KIPOK Q568 IMPED
Aircraft A21N/M-SDE3FGHIRWY/LB1

Departure

Time 2026-04-23 18:55
Airport King Khalid International Airport (OERK)

Arrival

Time 2026-04-23 20:25
Airport Dubai International Airport (OMDB)
Time Latitude Longitude Altitude Speed Heading
2026-04-23 18:35 24.95679 46.70618 2058 ft 0 kts 182°
2026-04-23 18:44 24.95688 46.70619 2058 ft 2 kts 201°
2026-04-23 18:44 24.95702 46.70627 2059 ft 2 kts 194°
2026-04-23 18:44 24.95717 46.70627 2059 ft 2 kts 176°
2026-04-23 18:44 24.95732 46.70629 2058 ft 2 kts 191°
2026-04-23 18:45 24.95747 46.70631 2057 ft 2 kts 184°
2026-04-23 18:45 24.95762 46.70634 2057 ft 2 kts 200°
2026-04-23 18:45 24.95776 46.70640 2056 ft 2 kts 209°
2026-04-23 18:45 24.95789 46.70650 2055 ft 2 kts 221°
2026-04-23 18:46 24.95799 46.70661 2054 ft 2 kts 232°
2026-04-23 18:46 24.95808 46.70675 2054 ft 2 kts 243°
2026-04-23 18:46 24.95814 46.70690 2053 ft 2 kts 244°
2026-04-23 18:46 24.95821 46.70706 2053 ft 2 kts 260°
2026-04-23 18:47 24.95819 46.70723 2052 ft 2 kts 296°
2026-04-23 18:47 24.95809 46.70735 2052 ft 2 kts 333°
2026-04-23 18:47 24.95794 46.70739 2053 ft 2 kts 356°
2026-04-23 18:47 24.95780 46.70745 2053 ft 2 kts 320°
2026-04-23 18:48 24.95774 46.70750 2053 ft 0 kts 324°
2026-04-23 18:48 24.95775 46.70750 2053 ft 0 kts 324°
2026-04-23 18:48 24.95787 46.70741 2053 ft 3 kts 328°
2026-04-23 18:48 24.95815 46.70725 2052 ft 5 kts 341°
2026-04-23 18:49 24.95851 46.70751 2050 ft 9 kts 57°
2026-04-23 18:49 24.95897 46.70838 2041 ft 16 kts 60°
2026-04-23 18:49 24.95938 46.70937 2037 ft 11 kts 93°
2026-04-23 18:49 24.95882 46.70996 2037 ft 11 kts 150°
2026-04-23 18:50 24.95832 46.71029 2037 ft 13 kts 149°
2026-04-23 18:50 24.95721 46.71099 2037 ft 14 kts 149°
2026-04-23 18:50 24.95629 46.71157 2037 ft 15 kts 150°
2026-04-23 18:50 24.95529 46.71220 2037 ft 17 kts 150°
2026-04-23 18:51 24.95424 46.71287 2038 ft 17 kts 149°
2026-04-23 18:51 24.95311 46.71358 2035 ft 20 kts 150°
2026-04-23 18:51 24.95180 46.71440 2033 ft 22 kts 150°
2026-04-23 18:51 24.95040 46.71529 2031 ft 24 kts 151°
2026-04-23 18:52 24.94885 46.71626 2029 ft 26 kts 150°
2026-04-23 18:52 24.94726 46.71727 2027 ft 26 kts 150°
2026-04-23 18:52 24.94570 46.71825 2026 ft 24 kts 150°
2026-04-23 18:52 24.94453 46.71901 2028 ft 12 kts 144°
2026-04-23 18:53 24.94441 46.71984 2027 ft 12 kts 63°
2026-04-23 18:53 24.94491 46.72082 2023 ft 16 kts 61°
2026-04-23 18:53 24.94542 46.72166 2020 ft 11 kts 28°
2026-04-23 18:53 24.94614 46.72144 2021 ft 10 kts 331°
2026-04-23 18:54 24.94795 46.72030 2024 ft 63 kts 330°
2026-04-23 18:54 24.95387 46.71655 2028 ft 130 kts 330°
2026-04-23 18:54 24.96340 46.71053 2082 ft 178 kts 332°
2026-04-23 18:54 24.97435 46.70367 2621 ft 185 kts 333°
2026-04-23 18:55 24.98566 46.69735 3361 ft 184 kts 341°
2026-04-23 18:55 24.99761 46.69228 3984 ft 189 kts 345°
2026-04-23 18:55 25.01085 46.68962 4367 ft 200 kts 10°
2026-04-23 18:55 25.02358 46.69585 4732 ft 209 kts 45°
2026-04-23 18:56 25.02977 46.70437 4999 ft 218 kts 58°
2026-04-23 18:56 25.04059 46.72474 5460 ft 246 kts 64°
2026-04-23 18:56 25.04612 46.74301 5921 ft 260 kts 91°
2026-04-23 18:56 25.04115 46.76199 6561 ft 267 kts 124°
2026-04-23 18:57 25.02770 46.77663 7057 ft 283 kts 141°
2026-04-23 18:57 25.01209 46.79133 7509 ft 301 kts 139°
2026-04-23 18:57 24.99595 46.80709 7923 ft 320 kts 139°
2026-04-23 18:57 24.97918 46.82350 8507 ft 331 kts 140°
2026-04-23 18:58 24.96192 46.84036 9311 ft 334 kts 142°
2026-04-23 18:58 24.94438 46.85741 10066 ft 337 kts 142°
2026-04-23 18:58 24.92657 46.87462 10662 ft 346 kts 142°
2026-04-23 18:58 24.90793 46.89252 10961 ft 363 kts 142°
2026-04-23 18:59 24.88867 46.91105 11241 ft 379 kts 142°
2026-04-23 18:59 24.86845 46.93048 11511 ft 393 kts 142°
2026-04-23 18:59 24.84776 46.95042 12038 ft 399 kts 142°
2026-04-23 18:59 24.82685 46.97060 12675 ft 402 kts 142°
2026-04-23 19:00 24.80579 46.99094 13282 ft 406 kts 143°
2026-04-23 19:00 24.78439 47.01154 13818 ft 411 kts 143°
2026-04-23 19:00 24.76278 47.03231 14358 ft 415 kts 143°
2026-04-23 19:00 24.74097 47.05327 14887 ft 420 kts 143°
2026-04-23 19:01 24.71862 47.07478 15435 ft 423 kts 143°
2026-04-23 19:01 24.69650 47.09601 15933 ft 428 kts 142°
2026-04-23 19:01 24.67380 47.11779 16406 ft 433 kts 142°
2026-04-23 19:01 24.65127 47.13945 16874 ft 437 kts 143°
2026-04-23 19:02 24.63582 47.15429 17172 ft 440 kts 143°
2026-04-23 19:02 24.60488 47.18397 17822 ft 445 kts 143°
2026-04-23 19:02 24.58166 47.20620 18273 ft 448 kts 142°
2026-04-23 19:02 24.55781 47.22904 18679 ft 453 kts 143°
2026-04-23 19:03 24.53408 47.25177 19099 ft 457 kts 143°
2026-04-23 19:03 24.51017 47.27465 19529 ft 460 kts 142°
2026-04-23 19:03 24.48586 47.29789 19958 ft 464 kts 143°
2026-04-23 19:03 24.46147 47.32123 20367 ft 467 kts 143°
2026-04-23 19:04 24.43675 47.34484 20753 ft 471 kts 142°
2026-04-23 19:04 24.41215 47.36834 21130 ft 474 kts 142°
2026-04-23 19:04 24.38700 47.39235 21513 ft 478 kts 142°
2026-04-23 19:04 24.36207 47.41614 21875 ft 481 kts 142°
2026-04-23 19:05 24.33669 47.44036 22231 ft 484 kts 142°
2026-04-23 19:05 24.31106 47.46480 22624 ft 487 kts 143°
2026-04-23 19:05 24.28573 47.48891 23130 ft 486 kts 143°
2026-04-23 19:05 24.26034 47.51308 23655 ft 485 kts 143°
2026-04-23 19:06 24.23491 47.53731 24117 ft 486 kts 143°
2026-04-23 19:06 24.20919 47.56176 24588 ft 486 kts 143°
2026-04-23 19:06 24.18372 47.58596 25056 ft 486 kts 143°
2026-04-23 19:06 24.15823 47.61018 25543 ft 485 kts 143°
2026-04-23 19:07 24.13250 47.63461 25942 ft 487 kts 143°
2026-04-23 19:07 24.10702 47.65878 26338 ft 488 kts 143°
2026-04-23 19:07 24.08149 47.68298 26731 ft 489 kts 143°
2026-04-23 19:07 24.05578 47.70736 27168 ft 488 kts 143°
2026-04-23 19:08 24.03027 47.73153 27598 ft 488 kts 143°
2026-04-23 19:08 24.00457 47.75587 27993 ft 488 kts 143°
2026-04-23 19:08 23.97893 47.78015 28358 ft 489 kts 144°
2026-04-23 19:08 23.95307 47.80459 28697 ft 490 kts 143°
2026-04-23 19:09 23.92727 47.82897 29072 ft 490 kts 144°
2026-04-23 19:09 23.90161 47.85318 29495 ft 489 kts 143°
2026-04-23 19:09 23.87599 47.87737 29897 ft 489 kts 144°
2026-04-23 19:09 23.85019 47.90174 30330 ft 487 kts 143°
2026-04-23 19:10 23.82454 47.92594 30729 ft 487 kts 144°
2026-04-23 19:10 23.79896 47.95005 31101 ft 486 kts 144°
2026-04-23 19:10 23.77350 47.97402 31502 ft 484 kts 143°
2026-04-23 19:10 23.74777 47.99824 31880 ft 483 kts 143°
2026-04-23 19:11 23.72235 48.02218 32203 ft 483 kts 144°
2026-04-23 19:11 23.69709 48.04593 32502 ft 484 kts 144°
2026-04-23 19:11 23.67147 48.07004 32820 ft 483 kts 144°
2026-04-23 19:11 23.64600 48.09397 33135 ft 483 kts 144°
2026-04-23 19:12 23.62925 48.10970 33325 ft 483 kts 144°
2026-04-23 19:12 23.59516 48.14169 33619 ft 485 kts 144°
2026-04-23 19:12 23.56962 48.16566 33795 ft 487 kts 144°
2026-04-23 19:12 23.54401 48.18969 34015 ft 488 kts 144°
2026-04-23 19:13 23.51798 48.21411 34232 ft 489 kts 144°
2026-04-23 19:13 23.49211 48.23833 34381 ft 492 kts 144°
2026-04-23 19:13 23.46623 48.26257 34535 ft 494 kts 144°
2026-04-23 19:13 23.44016 48.28711 34757 ft 495 kts 143°
2026-04-23 19:14 23.41516 48.31249 34916 ft 499 kts 140°
2026-04-23 19:14 23.36793 48.36959 34933 ft 514 kts 132°
2026-04-23 19:15 23.32679 48.43368 34934 ft 519 kts 126°
2026-04-23 19:15 23.28826 48.50036 34930 ft 521 kts 125°
2026-04-23 19:16 23.24984 48.56656 34924 ft 521 kts 125°
2026-04-23 19:16 23.21074 48.63331 34916 ft 522 kts 125°
2026-04-23 19:17 23.15250 48.73243 34917 ft 522 kts 126°
2026-04-23 19:17 23.11331 48.79905 34906 ft 522 kts 126°
2026-04-23 19:18 23.07424 48.86535 34902 ft 522 kts 126°
2026-04-23 19:18 23.03611 48.93206 34900 ft 524 kts 121°
2026-04-23 19:19 23.00710 49.00448 34888 ft 527 kts 109°
2026-04-23 19:19 22.99722 49.04312 34884 ft 528 kts 103°
2026-04-23 19:20 22.98751 49.12182 34882 ft 527 kts 92°
2026-04-23 19:20 22.98551 49.16100 34879 ft 527 kts 91°
2026-04-23 19:20 22.98187 49.24022 34874 ft 528 kts 92°
2026-04-23 19:21 22.97566 49.35884 34871 ft 527 kts 92°
2026-04-23 19:22 22.97119 49.43812 34869 ft 527 kts 92°
2026-04-23 19:22 22.96439 49.55695 34865 ft 526 kts 92°
2026-04-23 19:23 22.95980 49.63598 34864 ft 526 kts 92°
2026-04-23 19:24 22.95285 49.75475 34859 ft 526 kts 93°
2026-04-23 19:24 22.94583 49.87319 34859 ft 526 kts 93°
2026-04-23 19:25 22.93636 50.03074 34857 ft 526 kts 93°
2026-04-23 19:26 22.92898 50.15142 34852 ft 525 kts 93°
2026-04-23 19:27 22.91675 50.34874 34847 ft 525 kts 93°
2026-04-23 19:28 22.90681 50.50626 34847 ft 525 kts 93°
2026-04-23 19:29 22.89926 50.62450 34847 ft 526 kts 93°
2026-04-23 19:30 22.89154 50.74342 34840 ft 525 kts 93°
2026-04-23 19:31 22.88384 50.86132 34840 ft 525 kts 93°
2026-04-23 19:31 22.87863 50.93994 34838 ft 525 kts 93°
2026-04-23 19:32 22.87339 51.01872 34838 ft 525 kts 93°
2026-04-23 19:32 22.86813 51.09752 34838 ft 524 kts 93°
2026-04-23 19:33 22.86279 51.17631 34838 ft 525 kts 93°
2026-04-23 19:33 22.85472 51.29427 34837 ft 525 kts 93°
2026-04-23 19:34 22.84970 51.37310 34838 ft 525 kts 90°
2026-04-23 19:35 22.85722 51.49038 34835 ft 520 kts 76°
2026-04-23 19:35 22.87512 51.56565 34837 ft 515 kts 67°
2026-04-23 19:36 22.89886 51.63859 34835 ft 515 kts 66°
2026-04-23 19:36 22.92287 51.71148 34831 ft 515 kts 66°
2026-04-23 19:37 22.94658 51.78457 34828 ft 514 kts 66°
2026-04-23 19:37 22.97012 51.85770 34833 ft 515 kts 66°
2026-04-23 19:38 22.99358 51.93082 34835 ft 514 kts 66°
2026-04-23 19:38 23.01703 52.00401 34835 ft 514 kts 66°
2026-04-23 19:39 23.04057 52.07761 34839 ft 515 kts 66°
2026-04-23 19:39 23.06389 52.15071 34838 ft 514 kts 66°
2026-04-23 19:40 23.08711 52.22363 34839 ft 514 kts 67°
2026-04-23 19:40 23.11052 52.29717 34837 ft 515 kts 66°
2026-04-23 19:41 23.13376 52.37049 34836 ft 513 kts 67°
2026-04-23 19:41 23.15301 52.43119 34835 ft 513 kts 66°
2026-04-23 19:42 23.17777 52.51745 34834 ft 516 kts 73°
2026-04-23 19:42 23.19086 52.59412 34836 ft 519 kts 79°
2026-04-23 19:43 23.20041 52.67181 34833 ft 519 kts 80°
2026-04-23 19:43 23.20986 52.74973 34836 ft 519 kts 80°
2026-04-23 19:44 23.21934 52.82669 34838 ft 518 kts 80°
2026-04-23 19:44 23.22893 52.90435 34838 ft 518 kts 80°
2026-04-23 19:45 23.23849 52.98181 34838 ft 518 kts 80°
2026-04-23 19:45 23.24801 53.05924 34840 ft 518 kts 80°
2026-04-23 19:46 23.25742 53.13622 34841 ft 517 kts 80°
2026-04-23 19:46 23.26683 53.21333 34839 ft 517 kts 80°
2026-04-23 19:47 23.27465 53.27770 34839 ft 516 kts 80°
2026-04-23 19:47 23.28556 53.36791 34839 ft 516 kts 80°
2026-04-23 19:48 23.29483 53.44509 34841 ft 516 kts 79°
2026-04-23 19:48 23.30411 53.52236 34840 ft 515 kts 79°
2026-04-23 19:49 23.31333 53.59945 34839 ft 516 kts 79°
2026-04-23 19:49 23.32251 53.67681 34840 ft 516 kts 80°
2026-04-23 19:50 23.33163 53.75389 34842 ft 516 kts 80°
2026-04-23 19:50 23.34071 53.83100 34841 ft 514 kts 80°
2026-04-23 19:51 23.34977 53.90801 34844 ft 515 kts 80°
2026-04-23 19:51 23.35872 53.98481 34841 ft 514 kts 80°
2026-04-23 19:52 23.36618 54.04897 34837 ft 513 kts 80°
2026-04-23 19:52 23.37659 54.13864 34837 ft 514 kts 80°
2026-04-23 19:53 23.38551 54.21593 34836 ft 514 kts 80°
2026-04-23 19:53 23.39434 54.29286 34836 ft 514 kts 80°
2026-04-23 19:54 23.40310 54.36966 34835 ft 514 kts 79°
2026-04-23 19:54 23.41189 54.44681 34834 ft 514 kts 79°
2026-04-23 19:55 23.42060 54.52361 34831 ft 513 kts 80°
2026-04-23 19:55 23.42929 54.60064 34829 ft 513 kts 79°
2026-04-23 19:56 23.43789 54.67724 34826 ft 513 kts 80°
2026-04-23 19:56 23.44652 54.75442 34825 ft 514 kts 80°
2026-04-23 19:57 23.45510 54.83158 34826 ft 513 kts 80°
2026-04-23 19:57 23.46219 54.89550 34824 ft 512 kts 80°
2026-04-23 19:58 23.47210 54.98529 34826 ft 513 kts 80°
2026-04-23 19:58 23.48053 55.06222 34829 ft 512 kts 80°
2026-04-23 19:59 23.48888 55.13866 34830 ft 512 kts 80°
2026-04-23 19:59 23.49725 55.21569 34833 ft 511 kts 80°
2026-04-23 20:00 23.50870 55.29134 34826 ft 504 kts 68°
2026-04-23 20:00 23.52219 55.32585 34829 ft 496 kts 56°
2026-04-23 20:00 23.54150 55.35679 34833 ft 487 kts 44°
2026-04-23 20:00 23.56525 55.38258 34841 ft 476 kts 33°
2026-04-23 20:01 23.59196 55.40253 34839 ft 467 kts 22°
2026-04-23 20:01 23.65173 55.42658 34847 ft 454 kts
2026-04-23 20:02 23.71275 55.44394 34844 ft 454 kts
2026-04-23 20:02 23.77401 55.46169 34850 ft 454 kts
2026-04-23 20:03 23.83512 55.47975 34849 ft 454 kts
2026-04-23 20:03 23.89644 55.49794 34855 ft 454 kts
2026-04-23 20:04 23.95694 55.51866 34858 ft 460 kts 14°
2026-04-23 20:04 24.01502 55.54915 34492 ft 469 kts 24°
2026-04-23 20:04 24.04255 55.56820 33912 ft 472 kts 28°
2026-04-23 20:05 24.06040 55.58248 33454 ft 474 kts 32°
2026-04-23 20:05 24.09407 55.61379 32462 ft 477 kts 37°
2026-04-23 20:05 24.11837 55.63795 31800 ft 475 kts 37°
2026-04-23 20:05 24.14288 55.66252 31064 ft 475 kts 38°
2026-04-23 20:06 24.16620 55.68588 30320 ft 475 kts 38°
2026-04-23 20:06 24.19046 55.71008 29544 ft 475 kts 39°
2026-04-23 20:06 24.21497 55.73451 28764 ft 475 kts 39°
2026-04-23 20:06 24.23943 55.75886 27932 ft 476 kts 39°
2026-04-23 20:07 24.26403 55.78331 27062 ft 478 kts 39°
2026-04-23 20:07 24.28850 55.80768 26165 ft 480 kts 39°
2026-04-23 20:07 24.31332 55.83240 25234 ft 483 kts 39°
2026-04-23 20:07 24.33803 55.85700 24272 ft 486 kts 39°
2026-04-23 20:08 24.36305 55.88193 23249 ft 489 kts 40°
2026-04-23 20:08 24.38816 55.90694 22407 ft 487 kts 40°
2026-04-23 20:08 24.41312 55.93183 21671 ft 483 kts 40°
2026-04-23 20:08 24.43791 55.95654 20945 ft 479 kts 40°
2026-04-23 20:09 24.46233 55.98095 20279 ft 474 kts 40°
2026-04-23 20:09 24.48648 56.00510 19637 ft 468 kts 40°
2026-04-23 20:09 24.51050 56.02912 19005 ft 463 kts 40°
2026-04-23 20:09 24.53403 56.05264 18384 ft 458 kts 40°
2026-04-23 20:10 24.54988 56.06850 17971 ft 455 kts 40°
2026-04-23 20:10 24.58110 56.09905 17145 ft 447 kts 36°
2026-04-23 20:10 24.60709 56.11669 16526 ft 439 kts 24°
2026-04-23 20:10 24.63537 56.12801 15879 ft 432 kts 12°
2026-04-23 20:11 24.66470 56.13424 15237 ft 427 kts
2026-04-23 20:11 24.69390 56.13929 14761 ft 419 kts
2026-04-23 20:11 24.72245 56.14420 14347 ft 409 kts
2026-04-23 20:11 24.75034 56.14913 14051 ft 398 kts
2026-04-23 20:12 24.77745 56.15297 13764 ft 385 kts 359°
2026-04-23 20:12 24.80359 56.15028 13443 ft 371 kts 345°
2026-04-23 20:12 24.82758 56.14130 13195 ft 357 kts 333°
2026-04-23 20:12 24.84847 56.12767 12795 ft 345 kts 313°
2026-04-23 20:13 24.86202 56.10691 12431 ft 334 kts 295°
2026-04-23 20:13 24.87294 56.08434 11970 ft 332 kts 295°
2026-04-23 20:13 24.88376 56.06215 11497 ft 331 kts 296°
2026-04-23 20:13 24.89482 56.03999 11181 ft 322 kts 296°
2026-04-23 20:14 24.90547 56.01893 10895 ft 310 kts 296°
2026-04-23 20:14 24.91583 55.99860 10599 ft 298 kts 296°
2026-04-23 20:14 24.92584 55.97906 10305 ft 290 kts 296°
2026-04-23 20:14 24.93579 55.95964 10025 ft 292 kts 296°
2026-04-23 20:15 24.94568 55.94033 9673 ft 292 kts 296°
2026-04-23 20:15 24.95577 55.92073 9287 ft 291 kts 296°
2026-04-23 20:15 24.96571 55.90137 8879 ft 290 kts 296°
2026-04-23 20:15 24.97558 55.88218 8520 ft 289 kts 297°
2026-04-23 20:16 24.98538 55.86312 8153 ft 286 kts 297°
2026-04-23 20:16 24.99526 55.84394 7787 ft 284 kts 297°
2026-04-23 20:16 25.00491 55.82516 7444 ft 282 kts 297°
2026-04-23 20:16 25.01448 55.80656 7105 ft 280 kts 297°
2026-04-23 20:17 25.02414 55.78773 6766 ft 278 kts 298°
2026-04-23 20:17 25.03363 55.76926 6427 ft 277 kts 298°
2026-04-23 20:17 25.04308 55.75086 6056 ft 276 kts 298°
2026-04-23 20:17 25.05245 55.73262 5697 ft 274 kts 298°
2026-04-23 20:18 25.06182 55.71433 5351 ft 273 kts 298°
2026-04-23 20:18 25.07113 55.69617 5008 ft 271 kts 299°
2026-04-23 20:18 25.08038 55.67811 4653 ft 269 kts 299°
2026-04-23 20:18 25.08957 55.66040 4360 ft 266 kts 300°
2026-04-23 20:19 25.09881 55.64302 4100 ft 259 kts 301°
2026-04-23 20:19 25.10799 55.62606 3827 ft 250 kts 302°
2026-04-23 20:19 25.11678 55.61000 3562 ft 241 kts 302°
2026-04-23 20:19 25.12531 55.59454 3293 ft 233 kts 303°
2026-04-23 20:20 25.13367 55.57941 3023 ft 225 kts 303°
2026-04-23 20:20 25.14157 55.56514 2843 ft 212 kts 303°
2026-04-23 20:20 25.14906 55.55161 2676 ft 201 kts 304°
2026-04-23 20:20 25.15622 55.53867 2483 ft 193 kts 304°
2026-04-23 20:21 25.16316 55.52615 2303 ft 187 kts 304°
2026-04-23 20:21 25.16996 55.51389 2139 ft 187 kts 304°
2026-04-23 20:21 25.17440 55.50586 2036 ft 187 kts 304°
2026-04-23 20:21 25.18295 55.49039 1918 ft 168 kts 305°
2026-04-23 20:22 25.18897 55.47953 1707 ft 165 kts 304°
2026-04-23 20:22 25.19500 55.46867 1539 ft 164 kts 305°
2026-04-23 20:22 25.20080 55.45820 1312 ft 154 kts 304°
2026-04-23 20:22 25.20616 55.44849 1088 ft 143 kts 305°
2026-04-23 20:23 25.21137 55.43914 925 ft 142 kts 304°
2026-04-23 20:23 25.21654 55.42982 753 ft 142 kts 304°
2026-04-23 20:23 25.22164 55.42062 583 ft 142 kts 304°
2026-04-23 20:23 25.22680 55.41132 411 ft 141 kts 303°
2026-04-23 20:24 25.23193 55.40207 217 ft 140 kts 303°
2026-04-23 20:24 25.23698 55.39293 49 ft 137 kts 303°
2026-04-23 20:24 25.24133 55.38515 43 ft 97 kts 301°
2026-04-23 20:24 25.24404 55.38025 41 ft 59 kts 303°
2026-04-23 20:25 25.24611 55.37649 36 ft 54 kts 303°
2026-04-23 20:25 25.24759 55.37315 30 ft 44 kts 279°
2026-04-23 20:25 25.24786 55.37089 30 ft 19 kts 273°
2026-04-23 20:25 25.24805 55.36942 28 ft 19 kts 293°
2026-04-23 20:26 25.24860 55.36797 24 ft 21 kts 281°
2026-04-23 20:26 25.24907 55.36636 21 ft 21 kts 298°
2026-04-23 20:26 25.24981 55.36502 21 ft 19 kts 302°
2026-04-23 20:26 25.25050 55.36378 21 ft 18 kts 301°
2026-04-23 20:27 25.25117 55.36257 21 ft 18 kts 302°
2026-04-23 20:27 25.25182 55.36138 21 ft 17 kts 301°
2026-04-23 20:27 25.25246 55.36023 21 ft 17 kts 302°
2026-04-23 20:27 25.25310 55.35909 21 ft 17 kts 301°
2026-04-23 20:28 25.25371 55.35797 21 ft 16 kts 302°
2026-04-23 20:28 25.25433 55.35686 21 ft 16 kts 302°
2026-04-23 20:28 25.25494 55.35576 21 ft 16 kts 302°
2026-04-23 20:28 25.25554 55.35469 20 ft 16 kts 300°
2026-04-23 20:29 25.25613 55.35362 20 ft 16 kts 301°
2026-04-23 20:29 25.25671 55.35257 20 ft 16 kts 301°
2026-04-23 20:29 25.25727 55.35155 20 ft 13 kts 302°
2026-04-23 20:29 25.25763 55.35093 20 ft 7 kts 303°
2026-04-23 20:30 25.25775 55.35036 20 ft 8 kts 255°
2026-04-23 20:30 25.25723 55.34920 20 ft 9 kts 261°
2026-04-23 20:30 25.25712 55.34853 20 ft 6 kts 259°
2026-04-23 20:31 25.25707 55.34818 20 ft 3 kts 259°
2026-04-23 20:31 25.25705 55.34809 20 ft 0 kts 259°